EW3708 Weather Reports


Display with metric or nautical units.
time (UTC)temp
F
wind
direction
speed
MPH
gust
MPH
rain 1hr
in
rain 24hr
in
rain mn
in
humidity
%
barometer
mb
20240521223032 78 151 2.0 6.0 0.00 0.00 0.00 51 1012.7
20240521221531 79 173 3.0 7.0 0.00 0.00 0.00 51 1012.8
20240521220030 80 147 1.0 9.0 0.00 0.00 0.00 50 1012.6
20240521214535 80 194 2.0 5.0 0.00 0.00 0.00 48 1012.6
20240521213028 80 158 1.0 7.0 0.00 0.00 0.00 48 1012.5
20240521211528 80 155 2.0 6.0 0.00 0.00 0.00 48 1012.3
20240521210028 81 164 3.0 8.0 0.00 0.00 0.00 48 1012.0
20240521204536 80 201 1.0 6.0 0.00 0.00 0.00 50 1011.9
20240521203024 81 161 2.0 6.0 0.00 0.00 0.00 49 1012.1
20240521201524 82 171 3.0 8.0 0.00 0.00 0.00 44 1012.2
20240521200024 83 192 3.0 6.0 0.00 0.00 0.00 41 1012.5
20240521194528 85 191 2.0 7.0 0.00 0.00 0.00 39 1012.7
20240521193016 85 167 2.0 7.0 0.00 0.00 0.00 38 1012.8
20240521191513 85 153 2.0 4.0 0.00 0.00 0.00 40 1012.9
20240521190012 84 172 1.0 8.0 0.00 0.00 0.00 39 1012.9
20240521184510 84 165 2.0 6.0 0.00 0.00 0.00 42 1013.0
20240521183011 84 160 4.0 7.0 0.00 0.00 0.00 43 1013.1
20240521181511 84 107 3.0 7.0 0.00 0.00 0.00 44 1013.0
20240521180008 83 261 4.0 8.0 0.00 0.00 0.00 45 1013.0
20240521174507 84 120 2.0 7.0 0.00 0.00 0.00 43 1012.9
20240521173003 83 194 0.0 5.0 0.00 0.00 0.00 43 1013.1
20240521171501 83 199 1.0 5.0 0.00 0.00 0.00 46 1013.2
20240521170111 83 156 3.0 6.0 0.00 0.00 0.00 45 1013.3
20240521164601 83 103 1.0 3.0 0.00 0.00 0.00 45 1013.6
20240521163054 82 167 2.0 6.0 0.00 0.00 0.00 47 1013.9
20240521161549 80 269 1.0 6.0 0.00 0.00 0.00 47 1013.9
20240521160101 79 155 1.0 5.0 0.00 0.00 0.00 50 1014.2
20240521154541 78 170 2.0 6.0 0.00 0.00 0.00 51 1014.3
20240521153045 77 309 1.0 3.0 0.00 0.00 0.00 55 1014.4
20240521151536 76 235 1.0 6.0 0.00 0.00 0.00 58 1014.4
20240521150031 75 226 1.0 4.0 0.00 0.00 0.00 62 1014.4
20240521144526 73 174 1.0 3.0 0.00 0.00 0.00 65 1014.5
20240521143022 72 208 1.0 3.0 0.00 0.00 0.00 69 1014.5
20240521141522 71 126 0.0 2.0 0.00 0.00 0.00 73 1014.6
20240521140016 69 144 1.0 3.0 0.00 0.00 0.00 76 1014.7
20240521134511 68 198 0.0 2.0 0.00 0.00 0.00 84 1014.9
20240521133008 66 198 0.0 2.0 0.00 0.00 0.00 88 1014.9
20240521131507 64 178 0.0 2.0 0.00 0.00 0.00 93 1015.0
20240521130104 62 223 1.0 2.0 0.00 0.00 0.00 97 1015.1
20240521124557 61 173 0.0 3.0 0.00 0.00 0.00 97 1015.4
20240521123122 60 157 0.0 1.0 0.00 0.00 0.00 98 1015.3
20240521121608 58 157 0.0 1.0 0.00 0.00 0.00 97 1015.2
20240521120051 56 157 0.0 0.0 0.00 0.00 0.00 97 1015.1
20240521114549 55 157 0.0 0.0 0.00 0.00 0.00 96 1015.1
20240521113047 53 157 0.0 0.0 0.00 0.00 0.00 96 1015.0
20240521111554 53 157 0.0 0.0 0.00 0.00 0.00 96 1014.8
20240521110046 52 157 0.0 0.0 0.00 0.00 0.00 95 1014.8
20240521104544 52 157 0.0 0.0 0.00 0.00 0.00 95 1014.8
20240521103044 52 157 0.0 0.0 0.00 0.00 0.00 95 1014.8
20240521101541 52 157 0.0 0.0 0.00 0.00 0.00 95 1014.3
20240521100049 52 157 0.0 0.0 0.00 0.00 0.00 95 1014.4
20240521094540 53 157 0.0 1.0 0.00 0.00 0.00 95 1014.1
20240521093039 53 157 0.0 0.0 0.00 0.00 0.00 95 1014.1
20240521091538 53 157 0.0 0.0 0.00 0.00 0.00 94 1013.8
20240521090036 53 157 0.0 0.0 0.00 0.00 0.00 94 1013.9
20240521084534 53 157 0.0 1.0 0.00 0.00 0.00 94 1014.0
20240521083038 54 157 0.0 0.0 0.00 0.00 0.00 94 1014.1
20240521081535 54 157 0.0 1.0 0.00 0.00 0.00 94 1014.0
20240521080033 55 157 0.0 1.0 0.00 0.00 0.00 94 1013.9
20240521074532 55 157 0.0 1.0 0.00 0.00 0.00 94 1013.7
20240521073050 55 157 0.0 0.0 0.00 0.00 0.00 94 1013.7
20240521071526 55 157 0.0 1.0 0.00 0.00 0.00 94 1013.9
20240521070023 56 157 0.0 1.0 0.00 0.00 0.00 94 1013.9
20240521064522 56 157 0.0 0.0 0.00 0.00 0.00 94 1013.9
20240521063023 56 157 0.0 0.0 0.00 0.00 0.00 93 1014.0
20240521061521 56 157 0.0 1.0 0.00 0.00 0.00 93 1014.0
20240521060018 57 157 0.0 1.0 0.00 0.00 0.00 93 1014.0
20240521054518 57 157 0.0 0.0 0.00 0.00 0.00 93 1014.0
20240521053014 58 157 0.0 1.0 0.00 0.00 0.00 93 1013.9
20240521051512 58 157 0.0 1.0 0.00 0.00 0.00 93 1013.9
20240521050010 59 157 0.0 1.0 0.00 0.00 0.00 93 1014.0
20240521044510 59 157 0.0 1.0 0.00 0.00 0.00 92 1014.2
20240521043003 59 157 0.0 0.0 0.00 0.00 0.00 92 1014.3
20240521041503 60 157 0.0 1.0 0.00 0.00 0.00 91 1014.4
20240521040001 60 157 0.0 1.0 0.00 0.00 0.00 91 1014.4
20240521034610 61 157 0.0 1.0 0.00 0.00 0.00 91 1014.4
20240521033113 61 157 0.0 0.0 0.00 0.00 0.00 91 1014.5
20240521031559 61 157 0.0 0.0 0.00 0.00 0.00 90 1014.5
20240521030059 62 157 0.0 1.0 0.00 0.00 0.00 89 1014.6
20240521024600 62 157 0.0 0.0 0.00 0.00 0.00 88 1014.6
20240521023058 63 157 0.0 0.0 0.00 0.00 0.00 87 1014.6
20240521021610 63 157 0.0 1.0 0.00 0.00 0.00 86 1014.7
20240521020101 64 157 0.0 0.0 0.00 0.00 0.00 85 1014.6
20240521014557 65 157 0.0 1.0 0.00 0.00 0.00 84 1014.6
20240521013056 66 157 0.0 0.0 0.00 0.00 0.00 81 1014.5
20240521011556 67 157 0.0 0.0 0.00 0.00 0.00 80 1014.4
20240521010055 68 157 0.0 0.0 0.00 0.00 0.00 78 1014.4
20240521004556 69 157 0.0 0.0 0.00 0.00 0.00 76 1014.2
20240521003100 70 157 0.0 2.0 0.00 0.00 0.00 76 1014.1
20240521001555 70 157 0.0 1.0 0.00 0.00 0.00 74 1014.0
20240521000056 71 157 0.0 2.0 0.00 0.00 0.00 72 1014.0
20240520234553 72 157 0.0 2.0 0.00 0.00 0.00 69 1013.9
20240520233103 73 157 1.0 5.0 0.00 0.00 0.00 69 1013.9
20240520231551 73 161 1.0 3.0 0.00 0.00 0.00 67 1013.8
20240520230051 73 161 1.0 6.0 0.00 0.00 0.00 66 1013.8
20240520224554 74 161 2.0 5.0 0.00 0.00 0.00 67 1013.6